Zurück zum Katalog

BREEZE-M DEB

TANK

AktivHEO
NORAD 38869·DEBRIS·🇷🇺 Russia

Gestartet Oct 14, 2012 von Baikonur Cosmodrome

Loading…

Nächste Überflüge (nächste 24 Stunden)

TLE

AktuellSource: Space-Track

Epoche: Sep 14, 2026, 09:45 UTC

1 38869U 12057C   26257.40649848 -.00000118  00000-0  76263-3 0  9992
2 38869  45.6403 194.8345 7061743 350.1941   1.0946  2.29790705115618

Verfolge BREEZE-M DEB in Echtzeit mit AllMySat

Download on the App Store